| time (UTC) | temp F | wind direction | speed knots | gust knots | rain 1hr in | rain 24hr in | rain mn in | humidity % | barometer mb |
| 20260507070032 | 59 | 0.0 | 0.0 | 0.00 | 0.00 | 0.00 | 10 | 1016.0 | |
| 20260507064531 | 59 | 0.0 | 0.0 | 0.00 | 0.00 | 0.00 | 10 | 1015.9 | |
| 20260507063031 | 59 | 0.0 | 0.0 | 0.00 | 0.00 | 0.00 | 10 | 1015.7 | |
| 20260507061531 | 59 | 0.0 | 0.0 | 0.00 | 0.00 | 0.00 | 10 | 1015.5 | |
| 20260507060032 | 59 | 0.0 | 0.0 | 0.00 | 0.00 | 0.00 | 10 | 1015.4 | |
| 20260507054532 | 59 | 0.0 | 0.0 | 0.00 | 0.00 | 0.00 | 10 | 1015.2 | |
| 20260507051531 | 59 | 0.0 | 0.0 | 0.00 | 0.00 | 0.00 | 10 | 1015.1 | |
| 20260507044532 | 59 | 0.0 | 0.0 | 0.00 | 0.00 | 0.00 | 10 | 1014.7 | |
| 20260507043032 | 59 | 0.0 | 0.0 | 0.00 | 0.00 | 0.00 | 10 | 1014.4 | |
| 20260507041532 | 59 | 0.0 | 0.0 | 0.00 | 0.00 | 0.00 | 10 | 1014.2 | |
| 20260507040031 | 59 | 0.0 | 0.0 | 0.00 | 0.00 | 0.00 | 10 | 1014.0 | |
| 20260507034531 | 59 | 0.0 | 0.0 | 0.00 | 0.00 | 0.00 | 10 | 1013.8 | |
| 20260507033032 | 59 | 0.0 | 0.0 | 0.00 | 0.00 | 0.00 | 10 | 1013.8 | |
| 20260507031531 | 59 | 0.0 | 0.0 | 0.00 | 0.00 | 0.00 | 10 | 1013.8 | |
| 20260507030032 | 59 | 0.0 | 0.0 | 0.00 | 0.00 | 0.00 | 10 | 1013.8 | |
| 20260507024532 | 59 | 0.0 | 0.0 | 0.00 | 0.00 | 0.00 | 10 | 1013.7 | |
| 20260507021531 | 60 | 0.0 | 0.0 | 0.00 | 0.00 | 0.00 | 10 | 1013.6 | |
| 20260507020032 | 60 | 0.0 | 0.0 | 0.00 | 0.00 | 0.00 | 10 | 1013.6 | |
| 20260507014532 | 60 | 0.0 | 0.0 | 0.00 | 0.00 | 0.00 | 10 | 1013.4 | |
| 20260507013032 | 60 | 0.0 | 0.0 | 0.00 | 0.00 | 0.00 | 10 | 1013.4 | |
| 20260507011532 | 60 | 0.0 | 0.0 | 0.00 | 0.00 | 0.00 | 10 | 1013.3 | |
| 20260507010031 | 60 | 0.0 | 0.0 | 0.00 | 0.00 | 0.00 | 10 | 1013.2 | |
| 20260507004532 | 61 | 0.0 | 0.0 | 0.00 | 0.00 | 0.00 | 10 | 1013.2 | |
| 20260507003031 | 61 | 0.0 | 0.0 | 0.00 | 0.00 | 0.00 | 10 | 1013.3 | |
| 20260507001531 | 61 | 0.0 | 0.0 | 0.00 | 0.00 | 0.00 | 10 | 1013.2 | |
| 20260507000031 | 62 | 0.0 | 0.0 | 0.00 | 0.00 | 0.00 | 10 | 1013.2 | |
| 20260506234532 | 62 | 0.0 | 0.0 | 0.00 | 0.00 | 0.00 | 10 | 1013.2 | |
| 20260506233031 | 63 | 0.0 | 0.0 | 0.00 | 0.00 | 0.00 | 10 | 1013.1 | |
| 20260506231531 | 63 | 0.0 | 0.0 | 0.00 | 0.00 | 0.00 | 10 | 1013.3 | |
| 20260506230032 | 64 | 0.0 | 0.0 | 0.00 | 0.00 | 0.00 | 10 | 1013.2 | |
| 20260506223032 | 64 | 0.0 | 0.0 | 0.00 | 0.00 | 0.00 | 10 | 1013.2 | |
| 20260506220032 | 64 | 0.0 | 0.0 | 0.00 | 0.00 | 0.00 | 10 | 1013.3 | |
| 20260506214532 | 64 | 0.0 | 0.0 | 0.00 | 0.00 | 0.00 | 10 | 1013.4 | |
| 20260506213031 | 64 | 0.0 | 0.0 | 0.00 | 0.00 | 0.00 | 10 | 1013.6 | |
| 20260506210032 | 65 | 0.0 | 0.0 | 0.00 | 0.00 | 0.00 | 10 | 1013.3 | |
| 20260506204532 | 65 | 0.0 | 0.0 | 0.00 | 0.00 | 0.00 | 10 | 1013.4 | |
| 20260506203032 | 66 | 0.0 | 0.0 | 0.00 | 0.00 | 0.00 | 10 | 1013.3 | |
| 20260506201531 | 66 | 0.0 | 0.0 | 0.00 | 0.00 | 0.00 | 10 | 1013.4 | |
| 20260506200032 | 66 | 0.0 | 0.0 | 0.00 | 0.00 | 0.00 | 10 | 1013.5 | |
| 20260506194532 | 66 | 0.0 | 0.0 | 0.00 | 0.00 | 0.00 | 10 | 1013.2 | |
| 20260506193031 | 67 | 0.0 | 0.0 | 0.00 | 0.00 | 0.00 | 10 | 1013.1 | |
| 20260506190032 | 68 | 0.0 | 0.0 | 0.00 | 0.00 | 0.00 | 10 | 1013.0 | |
| 20260506184532 | 68 | 0.0 | 0.0 | 0.00 | 0.00 | 0.00 | 10 | 1013.2 | |
| 20260506181531 | 69 | 0.0 | 0.0 | 0.00 | 0.00 | 0.00 | 10 | 1011.8 | |
| 20260506180032 | 70 | 0.0 | 0.0 | 0.00 | 0.00 | 0.00 | 10 | 1011.6 | |
| 20260506174531 | 70 | 0.0 | 0.0 | 0.00 | 0.00 | 0.00 | 10 | 1011.1 | |
| 20260506173031 | 70 | 0.0 | 0.0 | 0.00 | 0.00 | 0.00 | 10 | 1011.0 | |
| 20260506171532 | 71 | 0.0 | 0.0 | 0.00 | 0.00 | 0.00 | 10 | 1010.9 | |
| 20260506170032 | 71 | 0.0 | 0.0 | 0.00 | 0.00 | 0.00 | 10 | 1010.9 | |
| 20260506164532 | 72 | 0.0 | 0.0 | 0.00 | 0.00 | 0.00 | 10 | 1010.8 | |
| 20260506163032 | 72 | 0.0 | 0.0 | 0.00 | 0.00 | 0.00 | 10 | 1010.7 | |
| 20260506161532 | 73 | 0.0 | 0.0 | 0.00 | 0.00 | 0.00 | 10 | 1010.7 | |
| 20260506154531 | 78 | 0.0 | 0.0 | 0.00 | 0.00 | 0.00 | 57 | 1010.4 | |
| 20260506153032 | 80 | 0.0 | 0.0 | 0.00 | 0.00 | 0.00 | 54 | 1010.2 | |
| 20260506151532 | 80 | 0.0 | 0.0 | 0.00 | 0.00 | 0.00 | 53 | 1010.3 | |
| 20260506150032 | 81 | 0.0 | 0.0 | 0.00 | 0.00 | 0.00 | 51 | 1010.3 | |
| 20260506143032 | 82 | 0.0 | 0.0 | 0.00 | 0.00 | 0.00 | 46 | 1010.5 | |
| 20260506140031 | 82 | 0.0 | 0.0 | 0.00 | 0.00 | 0.00 | 47 | 1010.7 | |
| 20260506134532 | 82 | 0.0 | 0.0 | 0.00 | 0.00 | 0.00 | 47 | 1010.8 | |
| 20260506130032 | 84 | 0.0 | 0.0 | 0.00 | 0.00 | 0.00 | 42 | 1011.2 | |
| 20260506124532 | 83 | 0.0 | 0.0 | 0.00 | 0.00 | 0.00 | 43 | 1011.3 | |
| 20260506123032 | 83 | 0.0 | 0.0 | 0.00 | 0.00 | 0.00 | 43 | 1011.5 | |
| 20260506120032 | 83 | 0.0 | 0.0 | 0.00 | 0.00 | 0.00 | 42 | 1011.8 | |
| 20260506114532 | 84 | 0.0 | 0.0 | 0.00 | 0.00 | 0.00 | 42 | 1012.0 | |
| 20260506113038 | 83 | 0.0 | 0.0 | 0.00 | 0.00 | 0.00 | 44 | 1012.1 | |
| 20260506111532 | 82 | 0.0 | 0.0 | 0.00 | 0.00 | 0.00 | 43 | 1012.3 | |
| 20260506110032 | 82 | 0.0 | 0.0 | 0.00 | 0.00 | 0.00 | 43 | 1012.4 | |
| 20260506104532 | 81 | 0.0 | 0.0 | 0.00 | 0.00 | 0.00 | 45 | 1012.5 | |
| 20260506103032 | 80 | 0.0 | 0.0 | 0.00 | 0.00 | 0.00 | 47 | 1012.6 | |
| 20260506101536 | 80 | 0.0 | 0.0 | 0.00 | 0.00 | 0.00 | 48 | 1012.8 | |
| 20260506094535 | 78 | 0.0 | 0.0 | 0.00 | 0.00 | 0.00 | 52 | 1013.1 | |
| 20260506093035 | 78 | 0.0 | 0.0 | 0.00 | 0.00 | 0.00 | 53 | 1013.1 | |
| 20260506090036 | 76 | 0.0 | 0.0 | 0.00 | 0.00 | 0.00 | 57 | 1013.4 | |
| 20260506084532 | 75 | 0.0 | 0.0 | 0.00 | 0.00 | 0.00 | 57 | 1013.5 | |
| 20260506081532 | 72 | 0.0 | 0.0 | 0.00 | 0.00 | 0.00 | 67 | 1013.6 | |
| 20260506073036 | 68 | 0.0 | 0.0 | 0.00 | 0.00 | 0.00 | 78 | 1013.6 | |
| 20260506071535 | 68 | 0.0 | 0.0 | 0.00 | 0.00 | 0.00 | 75 | 1013.6 |